SCO907P EGPF-EGPE

Flight info

Callsign SCO907P
Flight time 0h 29m
Altitude 19000
Route FOYLE DCT INBAS N560 GUSSI DCT INS
Aircraft AT46/M-SDFGIRY/S

Departure

Time 2026-04-28 20:31
Airport Glasgow Airport (EGPF)

Arrival

Time 2026-04-28 21:01
Airport Inverness Airport (EGPE)
Time Latitude Longitude Altitude Speed Heading
2026-04-28 20:07 55.86895 -4.43166 28 ft 0 kts 74°
2026-04-28 20:18 55.86894 -4.43169 28 ft 3 kts 74°
2026-04-28 20:18 55.86887 -4.43212 28 ft 3 kts 74°
2026-04-28 20:18 55.86882 -4.43243 28 ft 3 kts 74°
2026-04-28 20:19 55.86877 -4.43274 29 ft 3 kts 76°
2026-04-28 20:19 55.86876 -4.43281 29 ft 0 kts 89°
2026-04-28 20:21 55.86876 -4.43279 29 ft 0 kts 97°
2026-04-28 20:21 55.86874 -4.43274 29 ft 0 kts 119°
2026-04-28 20:21 55.86866 -4.43262 29 ft 3 kts 150°
2026-04-28 20:22 55.86827 -4.43254 29 ft 7 kts 198°
2026-04-28 20:22 55.86794 -4.43347 28 ft 13 kts 253°
2026-04-28 20:22 55.86764 -4.43535 27 ft 17 kts 253°
2026-04-28 20:22 55.86726 -4.43751 27 ft 20 kts 246°
2026-04-28 20:23 55.86634 -4.43931 27 ft 20 kts 224°
2026-04-28 20:23 55.86540 -4.44109 29 ft 19 kts 227°
2026-04-28 20:23 55.86447 -4.44284 29 ft 20 kts 226°
2026-04-28 20:23 55.86348 -4.44468 29 ft 21 kts 226°
2026-04-28 20:24 55.86254 -4.44655 27 ft 10 kts 250°
2026-04-28 20:24 55.86283 -4.44763 28 ft 4 kts 317°
2026-04-28 20:24 55.86288 -4.44772 28 ft 0 kts 317°
2026-04-28 20:30 55.86292 -4.44778 29 ft 3 kts 317°
2026-04-28 20:30 55.86319 -4.44823 30 ft 8 kts 317°
2026-04-28 20:31 55.86370 -4.44835 30 ft 14 kts 27°
2026-04-28 20:31 55.86696 -4.44254 44 ft 112 kts 48°
2026-04-28 20:31 55.87367 -4.43157 569 ft 150 kts 41°
2026-04-28 20:31 55.88222 -4.41799 1244 ft 178 kts 47°
2026-04-28 20:32 55.89093 -4.40093 2141 ft 192 kts 50°
2026-04-28 20:32 55.89982 -4.38283 3098 ft 196 kts 50°
2026-04-28 20:32 55.90888 -4.36446 4056 ft 199 kts 49°
2026-04-28 20:32 55.91826 -4.34620 4993 ft 203 kts 48°
2026-04-28 20:33 55.92825 -4.32721 5597 ft 219 kts 46°
2026-04-28 20:33 55.94244 -4.31402 5837 ft 249 kts 13°
2026-04-28 20:33 55.96029 -4.31749 5928 ft 274 kts 341°
2026-04-28 20:33 55.97560 -4.33798 6206 ft 277 kts 313°
2026-04-28 20:34 55.98822 -4.36374 6580 ft 277 kts 315°
2026-04-28 20:34 56.00279 -4.38615 7013 ft 275 kts 326°
2026-04-28 20:34 56.01345 -4.39838 7296 ft 274 kts 332°
2026-04-28 20:34 56.03096 -4.40919 7736 ft 266 kts 358°
2026-04-28 20:35 56.04944 -4.40794 8187 ft 265 kts
2026-04-28 20:35 56.07357 -4.40118 8792 ft 265 kts 13°
2026-04-28 20:35 56.09176 -4.39553 9250 ft 265 kts 13°
2026-04-28 20:35 56.10406 -4.39186 9570 ft 266 kts 12°
2026-04-28 20:36 56.12232 -4.38701 10041 ft 265 kts 11°
2026-04-28 20:36 56.14056 -4.38235 10499 ft 265 kts 12°
2026-04-28 20:36 56.15887 -4.37789 10933 ft 265 kts 11°
2026-04-28 20:36 56.17716 -4.37376 11368 ft 265 kts 11°
2026-04-28 20:37 56.19538 -4.36952 11807 ft 264 kts 11°
2026-04-28 20:37 56.21357 -4.36519 12257 ft 264 kts 11°
2026-04-28 20:37 56.23155 -4.36093 12702 ft 264 kts 11°
2026-04-28 20:37 56.24998 -4.35663 13156 ft 263 kts 11°
2026-04-28 20:38 56.26780 -4.35246 13605 ft 261 kts 11°
2026-04-28 20:38 56.28577 -4.34826 14081 ft 261 kts 11°
2026-04-28 20:38 56.30373 -4.34399 14554 ft 260 kts 12°
2026-04-28 20:38 56.32168 -4.33970 14990 ft 260 kts 12°
2026-04-28 20:39 56.33960 -4.33551 15420 ft 260 kts 12°
2026-04-28 20:39 56.35750 -4.33129 15851 ft 259 kts 12°
2026-04-28 20:39 56.37521 -4.32707 16298 ft 257 kts 12°
2026-04-28 20:39 56.39295 -4.32284 16736 ft 255 kts 12°
2026-04-28 20:40 56.41048 -4.31878 17214 ft 253 kts 12°
2026-04-28 20:40 56.42790 -4.31481 17654 ft 251 kts 11°
2026-04-28 20:40 56.44514 -4.31119 18139 ft 249 kts 11°
2026-04-28 20:40 56.46219 -4.30744 18620 ft 246 kts 12°
2026-04-28 20:41 56.47916 -4.30344 19063 ft 244 kts 12°
2026-04-28 20:41 56.49596 -4.29944 19366 ft 248 kts 12°
2026-04-28 20:41 56.51345 -4.29520 19423 ft 259 kts 12°
2026-04-28 20:41 56.53160 -4.29081 19466 ft 268 kts 12°
2026-04-28 20:42 56.55034 -4.28635 19473 ft 275 kts 12°
2026-04-28 20:42 56.56948 -4.28179 19474 ft 280 kts 12°
2026-04-28 20:42 56.58891 -4.27714 19486 ft 283 kts 12°
2026-04-28 20:42 56.60855 -4.27243 19479 ft 286 kts 12°
2026-04-28 20:43 56.62827 -4.26767 19482 ft 287 kts 12°
2026-04-28 20:43 56.64821 -4.26287 19384 ft 290 kts 12°
2026-04-28 20:43 56.66840 -4.25805 19189 ft 297 kts 11°
2026-04-28 20:43 56.68911 -4.25308 18716 ft 300 kts 12°
2026-04-28 20:44 56.70972 -4.24795 18171 ft 298 kts 11°
2026-04-28 20:44 56.73027 -4.24302 17643 ft 298 kts 11°
2026-04-28 20:44 56.75077 -4.23806 17131 ft 297 kts 11°
2026-04-28 20:44 56.77130 -4.23307 16618 ft 297 kts 11°
2026-04-28 20:45 56.79177 -4.22808 16117 ft 297 kts 11°
2026-04-28 20:45 56.81231 -4.22310 15624 ft 298 kts 11°
2026-04-28 20:45 56.83288 -4.21814 15135 ft 298 kts 11°
2026-04-28 20:45 56.85344 -4.21314 14648 ft 298 kts 11°
2026-04-28 20:46 56.87392 -4.20816 14174 ft 296 kts 10°
2026-04-28 20:46 56.89431 -4.20328 13651 ft 294 kts 10°
2026-04-28 20:46 56.91415 -4.19844 13522 ft 281 kts 11°
2026-04-28 20:46 56.93315 -4.19374 13502 ft 270 kts 11°
2026-04-28 20:47 56.95143 -4.18926 13489 ft 262 kts 11°
2026-04-28 20:47 56.96935 -4.18488 13477 ft 256 kts 11°
2026-04-28 20:47 56.98696 -4.18049 13304 ft 260 kts 11°
2026-04-28 20:47 57.00522 -4.17599 12969 ft 268 kts 11°
2026-04-28 20:48 57.02386 -4.17142 12610 ft 272 kts 10°
2026-04-28 20:48 57.04272 -4.16674 12260 ft 275 kts 10°
2026-04-28 20:48 57.06173 -4.16207 11918 ft 277 kts 10°
2026-04-28 20:48 57.08084 -4.15737 11558 ft 277 kts 10°
2026-04-28 20:49 57.09994 -4.15269 11258 ft 276 kts
2026-04-28 20:49 57.11875 -4.14805 11120 ft 269 kts 10°
2026-04-28 20:49 57.13709 -4.14351 11056 ft 262 kts 10°
2026-04-28 20:49 57.15498 -4.13905 11033 ft 258 kts 10°
2026-04-28 20:50 57.17264 -4.13471 11012 ft 254 kts 10°
2026-04-28 20:50 57.19004 -4.13036 11007 ft 251 kts 10°
2026-04-28 20:50 57.20730 -4.12612 11001 ft 249 kts
2026-04-28 20:50 57.22420 -4.12082 11004 ft 246 kts 13°
2026-04-28 20:51 57.24123 -4.11462 10690 ft 257 kts 13°
2026-04-28 20:51 57.25934 -4.10766 10122 ft 272 kts 13°
2026-04-28 20:51 57.27811 -4.10022 9514 ft 280 kts 14°
2026-04-28 20:51 57.29077 -4.09511 9120 ft 279 kts 14°
2026-04-28 20:52 57.31527 -4.08500 8354 ft 262 kts 14°
2026-04-28 20:52 57.33292 -4.07774 7681 ft 258 kts 14°
2026-04-28 20:52 57.35035 -4.07058 7022 ft 255 kts 14°
2026-04-28 20:52 57.36762 -4.06565 6327 ft 250 kts 359°
2026-04-28 20:53 57.39486 -4.10131 4790 ft 241 kts 293°
2026-04-28 20:53 57.39712 -4.12980 4303 ft 208 kts 272°
2026-04-28 20:53 57.39730 -4.15491 4086 ft 183 kts 270°
2026-04-28 20:54 57.39719 -4.17719 3990 ft 165 kts 269°
2026-04-28 20:54 57.39694 -4.19808 3945 ft 167 kts 268°
2026-04-28 20:54 57.39654 -4.22032 3927 ft 178 kts 268°
2026-04-28 20:54 57.39606 -4.24451 3920 ft 196 kts 268°
2026-04-28 20:55 57.39564 -4.27058 3917 ft 208 kts 268°
2026-04-28 20:55 57.39677 -4.29739 3901 ft 211 kts 290°
2026-04-28 20:55 57.40612 -4.31901 3545 ft 229 kts 328°
2026-04-28 20:55 57.42148 -4.32672 3105 ft 227 kts
2026-04-28 20:56 57.43672 -4.32453 2891 ft 210 kts
2026-04-28 20:56 57.44892 -4.31347 2790 ft 195 kts 48°
2026-04-28 20:56 57.45361 -4.29102 2746 ft 181 kts 89°
2026-04-28 20:56 57.45338 -4.26854 2719 ft 173 kts 91°
2026-04-28 20:57 57.45427 -4.24709 2705 ft 163 kts 69°
2026-04-28 20:57 57.45936 -4.22841 2473 ft 170 kts 60°
2026-04-28 20:57 57.46666 -4.21099 2232 ft 170 kts 49°
2026-04-28 20:57 57.47402 -4.19628 2000 ft 143 kts 47°
2026-04-28 20:58 57.48027 -4.18361 1809 ft 125 kts 49°
2026-04-28 20:58 57.48547 -4.17212 1646 ft 110 kts 51°
2026-04-28 20:58 57.49035 -4.16115 1492 ft 111 kts 51°
2026-04-28 20:58 57.49539 -4.14993 1340 ft 114 kts 50°
2026-04-28 20:59 57.50058 -4.13862 1185 ft 116 kts 49°
2026-04-28 20:59 57.50584 -4.12728 1028 ft 116 kts 49°
2026-04-28 20:59 57.51114 -4.11587 865 ft 117 kts 49°
2026-04-28 20:59 57.51642 -4.10445 707 ft 116 kts 50°
2026-04-28 21:00 57.52166 -4.09300 557 ft 116 kts 50°
2026-04-28 21:00 57.52685 -4.08164 397 ft 114 kts 51°
2026-04-28 21:00 57.53185 -4.07071 250 ft 109 kts 51°
2026-04-28 21:00 57.53678 -4.06015 106 ft 107 kts 50°
2026-04-28 21:01 57.54151 -4.05000 41 ft 99 kts 51°
2026-04-28 21:01 57.54506 -4.04199 28 ft 55 kts 52°
2026-04-28 21:01 57.54696 -4.03826 27 ft 15 kts 358°
2026-04-28 21:01 57.54841 -4.04077 28 ft 44 kts 325°
2026-04-28 21:02 57.54971 -4.04331 28 ft 30 kts 275°
2026-04-28 21:02 57.54838 -4.04689 30 ft 34 kts 231°
2026-04-28 21:02 57.54730 -4.05180 32 ft 45 kts 238°
2026-04-28 21:02 57.54555 -4.05623 35 ft 40 kts 234°
2026-04-28 21:03 57.54459 -4.06044 36 ft 31 kts 239°
2026-04-28 21:03 57.54313 -4.06262 36 ft 18 kts 182°
2026-04-28 21:03 57.54128 -4.06152 35 ft 28 kts 152°
2026-04-28 21:03 57.53976 -4.06165 35 ft 13 kts 191°
2026-04-28 21:04 57.53957 -4.06172 35 ft 6 kts 185°
2026-04-28 21:04 57.53828 -4.06190 36 ft 17 kts 205°
2026-04-28 21:04 57.53803 -4.06270 36 ft 0 kts 268°